Weather in Pripyat

Ukraine / Kyiv Region     51°24′19″N   30°03′29″E
temp.,
°C
wind,
m/s
gust,
m/s
humid.,
%
clouds,
%
prec.,
mm/h
press.,
hPa
HPBL,
m
20 september, mon
mon2000:00+8sw3694100 0.3 1006406
03:00+8sw3595100 0.3 1006320
06:00+9nw3797100 0.7 1005366
09:00+9nw51096100 1.4 1006524
12:00+9nw699099 0.1 1008597
15:00+10wnw6881100 0.1 1009835
18:00+9wnw5981100 0.0 1010801
21:00+6wnw5887100 0.1 1012726
21 september, tue
tue2100:00+6w5988100 0.0 1013754
03:00+5w5987100 0.0 1013761
06:00+4w5895100 0.0 1013727
09:00+4w5996100 0.5 1013690
12:00+4wnw51096100 0.3 1014665
15:00+5wnw61196100 0.4 1015663
18:00+5wnw61097100 0.3 1016843
21:00+5nw51097100 0.8 1016883
22 september, wed
wed2200:00+5nw5997100 0.1 1016885
03:00+5nw5895100 0.4 1016914
06:00+5nw5896100 0.3 1015905
09:00+5nw4894100 0.6 1015866
12:00+5nw4693100 0.2 1016814
15:00+5nw4694100 0.4 1016667
18:00+5nw3695100 0.2 1016588
21:00+5nw3696100 0.4 1016488
23 september, thu
thu2300:00+5nw3596100 0.2 1016572
03:00+5nw2495100 0.5 1016562
06:00+5nw2495100 0.2 1015625
09:00+5nw2492100 0.2 1016312
12:00+6wnw2386100 0.1 1015533
15:00+7wnw3488100 0.3 1015678
18:00+6wsw2394100 0.3 1015209
21:00+6w2396100 0.6 1015148
24 september, fri
fri2400:00+6wsw2395100 0.1 1015108
03:00+6ssw2495100 0.1 1014140
06:00+6s3794100 0.0 1012237
09:00+7s51091100 0.0 1010422
12:00+9s71481100 0.0 1007586
15:00+10sw71389100 1.3 1006930
18:00+10sw5109045 0.7 1006713
21:00+9wsw411925 0.8 1007284